Location: Central Falls
(41.8900°N, 71.3929°W)
Time: 02:31:58
(UTC+00:00)

Tiros 1 - Pass Details

Date: 06 December 2023
Orbit: 625 x 658 km, 48.4° (Epoch: 01 March)

Event Time Altitude Azimuth Distance (km) Brightness Sun altitude
Rises 08:07:40 0° 223° (SW) 2,961 - -42.1°
Reaches altitude 10° 08:10:03 10° 218° (SW) 2,057 - -41.7°
Maximum altitude 08:14:38 49° 144° (SE) 842 - -40.9°
Exits shadow 08:18:53 12° 71° (ENE) 1,936 10.2 -40.1°
Drops below altitude 10° 08:19:15 10° 69° (ENE) 2,074 10.4 -40.0°
Sets 08:21:40 0° 64° (ENE) 2,989 11.4 -39.6°
